This is the latest recevied weather packets stored in our database for station/object SP6FIG. If no packets are shown the sender has not sent any weather packets the latest 10 day(s).
| Time | Temp. | Humidity | Pressure | Rain* | Wind** | Luminosity | Snow |
|---|---|---|---|---|---|---|---|
| 1777549913 | 22.22° C | 31% | 981.3 hPa | - | - | - | - |
| 1777548113 | 22.78° C | 35% | 981.2 hPa | - | - | - | - |
| 1777546913 | 22.78° C | 35% | 981.3 hPa | - | - | - | - |
| 1777546313 | 22.22° C | 35% | 981.5 hPa | - | - | - | - |
| 1777545113 | 22.22° C | 36% | 981.5 hPa | - | - | - | - |
| 1777544513 | 22.22° C | 36% | 981.6 hPa | - | - | - | - |
| 1777543913 | 22.22° C | 36% | 981.8 hPa | - | - | - | - |
| 1777491190 | 22.22° C | 33% | 980.3 hPa | - | - | - | - |
| 1777490590 | 22.22° C | 33% | 980.3 hPa | - | - | - | - |
| 1777489990 | 22.22° C | 32% | 980.2 hPa | - | - | - | - |
| 1777489390 | 22.22° C | 32% | 980.2 hPa | - | - | - | - |
| 1777485790 | 22.22° C | 32% | 979.7 hPa | - | - | - | - |
| 1777485190 | 22.22° C | 33% | 979.5 hPa | - | - | - | - |
| 1777484590 | 22.22° C | 34% | 979.4 hPa | - | - | - | - |
| 1777483990 | 22.22° C | 34% | 979.4 hPa | - | - | - | - |
| 1777483390 | 22.22° C | 34% | 979.4 hPa | - | - | - | - |
| 1777482790 | 22.78° C | 33% | 979.3 hPa | - | - | - | - |
| 1777481590 | 22.78° C | 31% | 979.1 hPa | - | - | - | - |
| 1777480990 | 22.78° C | 31% | 979.2 hPa | - | - | - | - |
| 1777480390 | 22.78° C | 31% | 979.1 hPa | - | - | - | - |
| 1777479790 | 22.22° C | 31% | 979 hPa | - | - | - | - |
| 1777478590 | 22.78° C | 31% | 978.9 hPa | - | - | - | - |
| 1777476790 | 22.78° C | 30% | 978.9 hPa | - | - | - | - |
| 1777476190 | 22.78° C | 30% | 978.9 hPa | - | - | - | - |
| 1777474390 | 22.22° C | 27% | 978.9 hPa | - | - | - | - |
* Rain since midnight (hover to see other rain measurements)
** Current wind speed in m/s (hover to see current wind gust speed)